User: anonymous   Login
Location: Newark
(11.5710°N, 104.9241°E)
Time: 15:49:00
(UTC+00:00)
Language:

FALCONSAT 3 - Orbit

View from above orbital plane
View from above orbital plane
View from above satellite
View from above satellite

Ground track
Ground track

The orbit data is extracted from the following two-line orbital elements,

1 30776U 07006E   20094.88663848 +.00003478 +00000-0 +93667-4 0  9999
2 30776 035.4354 036.9721 0003639 238.8052 121.2318 15.37465463725350
Epoch (UTC): 03 April 2020 21:16:45
Eccentricity: 0.0003639
inclination: 35.4354°
perigee height: 451 km
apogee height: 456 km
right ascension of ascending node: 36.9721°
argument of perigee: 238.8052°
revolutions per day: 15.37465463
mean anomaly at epoch: 121.2318°
orbit number at epoch: 72535

The dashed part of the orbit path shows where the satellite is in the earth's shadow,  

DLR